Time,TemperatureF,DewpointF,PressureIn,WindDirection,WindDirectionDegrees,WindSpeedMPH,WindSpeedGustMPH,Humidity,HourlyPrecipIn,Conditions,Clouds,dailyrainin,SoftwareType,DateUTC
2013-06-05 00:02:00,77.0,73.0,29.99,ENE,67,1.0,4.0,88,0.00,,,0.67,,2013-06-05 04:02:00,
2013-06-05 00:13:00,77.0,73.0,29.99,ENE,67,1.0,4.0,88,0.00,,,0.67,,2013-06-05 04:13:00,
2013-06-05 00:23:00,77.0,74.0,29.99,NE,55,0.0,0.0,89,0.00,,,0.66,,2013-06-05 04:23:00,
2013-06-05 00:33:00,77.0,74.0,29.99,NE,55,0.0,0.0,89,0.00,,,0.66,,2013-06-05 04:33:00,
2013-06-05 00:42:00,77.0,74.0,29.99,NE,55,0.0,0.0,89,0.00,,,0.66,,2013-06-05 04:42:00,
2013-06-05 00:53:00,76.0,73.0,29.98,NE,55,0.0,0.0,89,0.01,,,0.60,,2013-06-05 04:53:00,
2013-06-05 01:02:00,76.0,73.0,29.98,NE,55,0.0,0.0,89,0.01,,,0.60,,2013-06-05 05:02:00,
2013-06-05 01:12:00,76.0,73.0,29.98,NE,55,0.0,0.0,89,0.01,,,0.60,,2013-06-05 05:12:00,
2013-06-05 01:22:00,76.0,73.0,29.98,NE,55,0.0,0.0,89,0.01,,,0.60,,2013-06-05 05:22:00,
2013-06-05 01:32:00,76.0,73.0,29.98,NE,55,0.0,1.0,90,0.01,,,0.56,,2013-06-05 05:32:00,
2013-06-05 01:42:00,76.0,73.0,29.98,NE,55,0.0,1.0,90,0.01,,,0.56,,2013-06-05 05:42:00,
2013-06-05 01:53:00,76.0,73.0,29.97,ENE,69,0.0,0.0,90,0.00,,,0.56,,2013-06-05 05:53:00,
2013-06-05 02:02:00,76.0,73.0,29.97,ENE,69,0.0,0.0,90,0.00,,,0.56,,2013-06-05 06:02:00,
2013-06-05 02:12:00,76.0,73.0,29.97,ENE,69,0.0,0.0,90,0.00,,,0.56,,2013-06-05 06:12:00,
2013-06-05 02:22:00,76.0,73.0,29.97,ENE,69,0.0,1.0,90,0.00,,,0.56,,2013-06-05 06:22:00,
2013-06-05 02:32:00,76.0,73.0,29.97,ENE,69,0.0,1.0,90,0.00,,,0.56,,2013-06-05 06:32:00,
2013-06-05 02:42:00,76.0,73.0,29.97,ENE,69,0.0,1.0,90,0.00,,,0.56,,2013-06-05 06:42:00,
2013-06-05 02:52:00,76.0,73.0,29.96,East,89,0.0,2.0,90,0.00,,,0.35,,2013-06-05 06:52:00,
2013-06-05 03:02:00,76.0,73.0,29.96,East,89,0.0,2.0,90,0.00,,,0.35,,2013-06-05 07:02:00,
2013-06-05 03:12:00,76.0,73.0,29.96,East,89,0.0,2.0,90,0.00,,,0.35,,2013-06-05 07:12:00,
2013-06-05 03:32:00,76.0,73.0,29.94,SSE,165,0.0,1.0,91,0.00,,,0.06,,2013-06-05 07:32:00,
2013-06-05 03:42:00,76.0,73.0,29.94,SSE,165,0.0,1.0,91,0.00,,,0.06,,2013-06-05 07:42:00,
2013-06-05 03:52:00,76.0,73.0,29.94,SSE,165,0.0,1.0,91,0.00,,,0.06,,2013-06-05 07:52:00,
2013-06-05 04:02:00,76.0,73.0,29.94,SE,130,0.0,2.0,91,0.01,,,0.07,,2013-06-05 08:02:00,
2013-06-05 04:12:00,76.0,73.0,29.94,SE,130,0.0,2.0,91,0.01,,,0.07,,2013-06-05 08:12:00,
2013-06-05 04:22:00,76.0,73.0,29.93,SE,130,0.0,0.0,91,0.01,,,0.06,,2013-06-05 08:22:00,
2013-06-05 04:32:00,76.0,73.0,29.93,ENE,63,0.0,2.0,91,0.01,,,0.06,,2013-06-05 08:32:00,
2013-06-05 04:42:00,76.0,73.0,29.93,ENE,63,0.0,2.0,91,0.01,,,0.06,,2013-06-05 08:42:00,
2013-06-05 04:52:00,76.0,73.0,29.92,East,94,0.0,0.0,91,0.01,,,0.07,,2013-06-05 08:52:00,
2013-06-05 05:02:00,76.0,73.0,29.92,ESE,103,0.0,1.0,91,0.01,,,0.07,,2013-06-05 09:02:00,
2013-06-05 05:12:00,76.0,73.0,29.92,ESE,103,0.0,1.0,91,0.01,,,0.07,,2013-06-05 09:12:00,
2013-06-05 05:22:00,76.0,73.0,29.91,ESE,103,0.0,1.0,91,0.01,,,0.07,,2013-06-05 09:22:00,
2013-06-05 05:33:00,76.0,73.0,29.91,ESE,103,0.0,1.0,91,0.01,,,0.07,,2013-06-05 09:33:00,
2013-06-05 05:43:00,76.0,73.0,29.91,ESE,103,0.0,1.0,91,0.01,,,0.07,,2013-06-05 09:43:00,
2013-06-05 05:53:00,76.0,73.0,29.91,ESE,103,0.0,1.0,91,0.02,,,0.08,,2013-06-05 09:53:00,
2013-06-05 06:03:00,76.0,73.0,29.91,ESE,103,0.0,1.0,91,0.01,,,0.07,,2013-06-05 10:03:00,
2013-06-05 06:12:00,76.0,73.0,29.91,ESE,103,0.0,1.0,91,0.01,,,0.07,,2013-06-05 10:12:00,
2013-06-05 06:22:00,76.0,73.0,29.91,ESE,103,0.0,0.0,91,0.02,,,0.08,,2013-06-05 10:22:00,
2013-06-05 06:33:00,76.0,73.0,29.91,ESE,103,0.0,1.0,91,0.03,,,0.09,,2013-06-05 10:33:00,
2013-06-05 06:42:00,76.0,73.0,29.91,ESE,103,0.0,1.0,91,0.03,,,0.09,,2013-06-05 10:42:00,
2013-06-05 06:53:00,76.0,74.0,29.91,ENE,63,0.0,2.0,92,0.03,,,0.10,,2013-06-05 10:53:00,
2013-06-05 07:02:00,76.0,74.0,29.92,East,98,0.0,2.0,92,0.04,,,0.11,,2013-06-05 11:02:00,
2013-06-05 07:12:00,76.0,74.0,29.92,East,98,0.0,2.0,92,0.04,,,0.11,,2013-06-05 11:12:00,
2013-06-05 07:22:00,76.0,74.0,29.92,East,98,0.0,2.0,92,0.05,,,0.12,,2013-06-05 11:22:00,
2013-06-05 07:32:00,76.0,74.0,29.93,ENE,71,0.0,1.0,92,0.05,,,0.12,,2013-06-05 11:32:00,
2013-06-05 07:42:00,76.0,74.0,29.93,ENE,71,0.0,1.0,92,0.05,,,0.12,,2013-06-05 11:42:00,
2013-06-05 07:52:00,76.0,74.0,29.92,SE,138,0.0,0.0,92,0.04,,,0.12,,2013-06-05 11:52:00,
2013-06-05 08:02:00,76.0,74.0,29.92,SE,138,0.0,0.0,92,0.04,,,0.12,,2013-06-05 12:02:00,
2013-06-05 08:12:00,76.0,74.0,29.92,SE,138,0.0,0.0,92,0.04,,,0.12,,2013-06-05 12:12:00,
2013-06-05 08:22:00,76.0,74.0,29.93,East,90,0.0,3.0,92,0.05,,,0.13,,2013-06-05 12:22:00,
2013-06-05 08:32:00,76.0,73.0,29.93,NE,46,3.0,6.0,91,0.03,,,0.13,,2013-06-05 12:32:00,
2013-06-05 08:44:00,76.0,73.0,29.93,NE,46,3.0,6.0,91,0.03,,,0.13,,2013-06-05 12:44:00,
2013-06-05 08:52:00,76.0,74.0,29.93,East,84,1.0,2.0,92,0.02,,,0.14,,2013-06-05 12:52:00,
2013-06-05 09:02:00,76.0,73.0,29.94,SE,126,0.0,4.0,91,0.02,,,0.14,,2013-06-05 13:02:00,
2013-06-05 09:12:00,76.0,73.0,29.94,SE,126,0.0,4.0,91,0.02,,,0.14,,2013-06-05 13:12:00,
2013-06-05 09:22:00,76.0,73.0,29.94,SE,126,0.0,4.0,91,0.02,,,0.14,,2013-06-05 13:22:00,
2013-06-05 09:32:00,76.0,73.0,29.94,SE,126,0.0,4.0,91,0.02,,,0.14,,2013-06-05 13:32:00,
2013-06-05 09:42:00,77.0,74.0,29.95,NE,50,0.0,3.0,91,0.00,,,0.14,,2013-06-05 13:42:00,
2013-06-05 09:53:00,77.0,74.0,29.95,NE,50,0.0,3.0,91,0.00,,,0.14,,2013-06-05 13:53:00,
2013-06-05 10:02:00,77.0,74.0,29.95,NE,50,0.0,3.0,91,0.00,,,0.14,,2013-06-05 14:02:00,
2013-06-05 10:12:00,77.0,74.0,29.95,NE,50,0.0,3.0,91,0.00,,,0.14,,2013-06-05 14:12:00,
2013-06-05 10:22:00,78.0,75.0,29.95,ENE,62,2.0,3.0,90,0.00,,,0.14,,2013-06-05 14:22:00,
2013-06-05 10:32:00,78.0,75.0,29.95,NE,55,3.0,8.0,90,0.00,,,0.14,,2013-06-05 14:32:00,
2013-06-05 10:42:00,78.0,75.0,29.95,NE,55,3.0,8.0,90,0.00,,,0.14,,2013-06-05 14:42:00,
2013-06-05 10:52:00,78.0,75.0,29.95,East,97,0.0,3.0,90,0.00,,,0.14,,2013-06-05 14:52:00,
2013-06-05 11:02:00,78.0,75.0,29.95,East,97,0.0,3.0,90,0.00,,,0.14,,2013-06-05 15:02:00,
2013-06-05 11:12:00,78.0,75.0,29.95,East,97,0.0,3.0,90,0.00,,,0.14,,2013-06-05 15:12:00,
2013-06-05 11:22:00,79.0,75.0,29.96,SSE,161,0.0,5.0,89,0.00,,,0.14,,2013-06-05 15:22:00,
2013-06-05 11:33:00,78.0,74.0,29.96,ENE,67,0.0,5.0,89,0.00,,,0.14,,2013-06-05 15:33:00,
2013-06-05 11:43:00,78.0,74.0,29.96,WSW,240,1.0,1.0,89,0.01,,,0.15,,2013-06-05 15:43:00,
2013-06-05 11:53:00,78.0,74.0,29.96,WSW,240,1.0,1.0,89,0.01,,,0.15,,2013-06-05 15:53:00,
2013-06-05 12:03:00,78.0,74.0,29.96,NE,48,0.0,3.0,89,0.02,,,0.16,,2013-06-05 16:03:00,
2013-06-05 12:12:00,78.0,74.0,29.96,NE,48,0.0,3.0,89,0.02,,,0.16,,2013-06-05 16:12:00,
2013-06-05 12:23:00,79.0,76.0,29.96,ENE,78,0.0,1.0,90,0.02,,,0.15,,2013-06-05 16:23:00,
2013-06-05 12:32:00,79.0,76.0,29.96,ENE,78,0.0,1.0,90,0.02,,,0.15,,2013-06-05 16:32:00,
2013-06-05 12:42:00,78.0,74.0,29.96,NE,55,1.0,4.0,89,0.02,,,0.15,,2013-06-05 16:42:00,
2013-06-05 12:54:00,78.0,74.0,29.96,NE,55,1.0,4.0,89,0.02,,,0.15,,2013-06-05 16:54:00,
2013-06-05 13:02:00,78.0,74.0,29.96,NE,55,1.0,4.0,89,0.02,,,0.15,,2013-06-05 17:02:00,
2013-06-05 13:13:00,78.0,74.0,29.96,NE,55,1.0,4.0,89,0.02,,,0.15,,2013-06-05 17:13:00,
2013-06-05 13:22:00,78.0,74.0,29.95,ENE,73,0.0,4.0,89,0.02,,,0.16,,2013-06-05 17:22:00,
2013-06-05 13:33:00,78.0,74.0,29.95,ESE,119,0.0,4.0,89,0.02,,,0.17,,2013-06-05 17:33:00,
2013-06-05 13:43:00,78.0,74.0,29.95,NE,53,0.0,4.0,89,0.03,,,0.18,,2013-06-05 17:43:00,
2013-06-05 13:52:00,78.0,74.0,29.95,NE,53,0.0,4.0,89,0.03,,,0.18,,2013-06-05 17:52:00,
2013-06-05 14:02:00,78.0,74.0,29.94,ENE,70,0.0,2.0,89,0.03,,,0.19,,2013-06-05 18:02:00,
2013-06-05 14:12:00,78.0,74.0,29.94,ENE,70,0.0,2.0,89,0.03,,,0.19,,2013-06-05 18:12:00,
2013-06-05 14:22:00,78.0,75.0,29.94,ENE,61,0.0,1.0,90,0.02,,,0.19,,2013-06-05 18:22:00,
2013-06-05 14:32:00,78.0,75.0,29.94,NE,50,0.0,3.0,90,0.02,,,0.19,,2013-06-05 18:32:00,
2013-06-05 14:42:00,79.0,76.0,29.92,NNE,24,3.0,3.0,90,0.01,,,0.19,,2013-06-05 18:42:00,
2013-06-05 14:52:00,79.0,76.0,29.92,NNE,24,3.0,3.0,90,0.01,,,0.19,,2013-06-05 18:52:00,
2013-06-05 15:02:00,79.0,76.0,29.92,NNE,24,3.0,3.0,90,0.01,,,0.19,,2013-06-05 19:02:00,
2013-06-05 15:12:00,79.0,76.0,29.92,NNE,24,3.0,3.0,90,0.01,,,0.19,,2013-06-05 19:12:00,
2013-06-05 15:23:00,79.0,76.0,29.91,ENE,57,0.0,3.0,90,0.00,,,0.19,,2013-06-05 19:23:00,
2013-06-05 15:32:00,79.0,76.0,29.91,ENE,57,0.0,3.0,90,0.00,,,0.19,,2013-06-05 19:32:00,
2013-06-05 15:42:00,79.0,75.0,29.90,North,11,3.0,5.0,89,0.00,,,0.19,,2013-06-05 19:42:00,
2013-06-05 15:53:00,79.0,75.0,29.90,North,11,3.0,5.0,89,0.00,,,0.19,,2013-06-05 19:53:00,
2013-06-05 16:02:00,79.0,75.0,29.90,ENE,59,3.0,5.0,89,0.01,,,0.20,,2013-06-05 20:02:00,
2013-06-05 16:12:00,78.0,75.0,29.90,NNE,14,0.0,7.0,90,0.02,,,0.21,,2013-06-05 20:12:00,
2013-06-05 16:23:00,78.0,75.0,29.90,NNE,14,0.0,7.0,90,0.02,,,0.21,,2013-06-05 20:23:00,
2013-06-05 16:32:00,78.0,75.0,29.89,ENE,75,1.0,6.0,90,0.03,,,0.22,,2013-06-05 20:32:00,
2013-06-05 16:42:00,78.0,75.0,29.88,ENE,63,0.0,3.0,90,0.03,,,0.22,,2013-06-05 20:42:00,
2013-06-05 16:52:00,78.0,75.0,29.88,ENE,63,0.0,3.0,90,0.03,,,0.22,,2013-06-05 20:52:00,
2013-06-05 17:02:00,78.0,75.0,29.88,SSE,147,0.0,3.0,90,0.03,,,0.22,,2013-06-05 21:02:00,
2013-06-05 17:12:00,78.0,75.0,29.86,ENE,67,0.0,2.0,90,0.01,,,0.22,,2013-06-05 21:12:00,
2013-06-05 17:22:00,78.0,75.0,29.86,ENE,67,0.0,2.0,90,0.01,,,0.22,,2013-06-05 21:22:00,
2013-06-05 17:33:00,78.0,75.0,29.86,NE,53,0.0,4.0,90,0.01,,,0.22,,2013-06-05 21:33:00,
2013-06-05 17:43:00,78.0,75.0,29.85,NE,42,0.0,3.0,90,0.00,,,0.22,,2013-06-05 21:43:00,
2013-06-05 17:53:00,78.0,75.0,29.85,NE,42,0.0,3.0,90,0.00,,,0.22,,2013-06-05 21:53:00,
2013-06-05 18:02:00,78.0,75.0,29.85,NE,42,0.0,3.0,90,0.00,,,0.22,,2013-06-05 22:02:00,
2013-06-05 18:13:00,78.0,75.0,29.85,NE,42,0.0,3.0,90,0.00,,,0.22,,2013-06-05 22:13:00,
2013-06-05 18:22:00,79.0,76.0,29.85,NE,53,4.0,4.0,90,0.00,,,0.22,,2013-06-05 22:22:00,
2013-06-05 18:33:00,79.0,76.0,29.85,NE,53,4.0,4.0,90,0.00,,,0.22,,2013-06-05 22:33:00,
2013-06-05 18:42:00,79.0,76.0,29.85,SE,128,1.0,3.0,90,0.00,,,0.22,,2013-06-05 22:42:00,
2013-06-05 18:52:00,79.0,76.0,29.85,SE,128,1.0,3.0,90,0.00,,,0.22,,2013-06-05 22:52:00,
2013-06-05 19:02:00,79.0,76.0,29.85,ENE,57,0.0,3.0,90,0.00,,,0.22,,2013-06-05 23:02:00,
2013-06-05 19:12:00,79.0,76.0,29.84,NE,52,1.0,4.0,90,0.00,,,0.22,,2013-06-05 23:12:00,
2013-06-05 19:22:00,79.0,76.0,29.84,NE,52,1.0,4.0,90,0.00,,,0.22,,2013-06-05 23:22:00,
2013-06-05 19:32:00,79.0,76.0,29.85,ENE,74,0.0,3.0,90,0.01,,,0.23,,2013-06-05 23:32:00,
2013-06-05 19:42:00,79.0,76.0,29.85,ENE,74,0.0,3.0,90,0.01,,,0.23,,2013-06-05 23:42:00,
2013-06-05 19:53:00,78.0,75.0,29.86,East,86,0.0,0.0,90,0.01,,,0.23,,2013-06-05 23:53:00,
2013-06-05 20:02:00,78.0,75.0,29.86,East,86,0.0,0.0,90,0.01,,,0.23,,2013-06-06 00:02:00,
2013-06-05 20:12:00,78.0,75.0,29.86,East,86,0.0,0.0,90,0.01,,,0.23,,2013-06-06 00:12:00,
2013-06-05 20:22:00,78.0,75.0,29.86,East,86,0.0,0.0,90,0.01,,,0.23,,2013-06-06 00:22:00,
2013-06-05 21:02:00,78.0,75.0,29.87,ENE,61,0.0,2.0,90,0.01,,,0.24,,2013-06-06 01:02:00,
2013-06-05 21:13:00,78.0,75.0,29.87,ENE,61,0.0,2.0,90,0.01,,,0.24,,2013-06-06 01:13:00,
2013-06-05 21:22:00,78.0,75.0,29.87,East,96,1.0,3.0,90,0.02,,,0.25,,2013-06-06 01:22:00,
2013-06-05 21:32:00,78.0,75.0,29.87,East,96,1.0,3.0,90,0.02,,,0.25,,2013-06-06 01:32:00,
2013-06-05 21:42:00,75.0,72.0,29.87,ENE,57,0.0,5.0,89,0.13,,,0.36,,2013-06-06 01:42:00,
2013-06-05 21:53:00,75.0,72.0,29.87,ENE,57,0.0,5.0,89,0.13,,,0.36,,2013-06-06 01:53:00,
2013-06-05 22:02:00,74.0,71.0,29.86,ESE,122,0.0,5.0,90,0.14,,,0.37,,2013-06-06 02:02:00,
2013-06-05 22:12:00,74.0,71.0,29.86,ESE,122,0.0,5.0,90,0.14,,,0.37,,2013-06-06 02:12:00,
2013-06-05 22:22:00,74.0,71.0,29.86,ENE,63,0.0,5.0,90,0.14,,,0.37,,2013-06-06 02:22:00,
2013-06-05 22:32:00,76.0,73.0,29.86,East,87,0.0,3.0,91,0.12,,,0.37,,2013-06-06 02:32:00,
2013-06-05 22:42:00,76.0,73.0,29.86,East,87,0.0,3.0,91,0.12,,,0.37,,2013-06-06 02:42:00,
2013-06-05 22:52:00,76.0,73.0,29.86,East,87,0.0,3.0,91,0.12,,,0.37,,2013-06-06 02:52:00,
2013-06-05 23:02:00,76.0,73.0,29.86,East,94,0.0,5.0,91,0.01,,,0.37,,2013-06-06 03:02:00,
2013-06-05 23:12:00,76.0,73.0,29.86,East,94,0.0,5.0,91,0.01,,,0.37,,2013-06-06 03:12:00,
2013-06-05 23:22:00,75.0,72.0,29.87,South,190,0.0,5.0,90,0.01,,,0.37,,2013-06-06 03:22:00,
2013-06-05 23:33:00,75.0,72.0,29.87,South,190,0.0,5.0,90,0.01,,,0.37,,2013-06-06 03:33:00,
2013-06-05 23:43:00,75.0,72.0,29.87,South,190,0.0,5.0,90,0.01,,,0.37,,2013-06-06 03:43:00,